Thomasville, PA

10:05 PM EST on February 09, 2016 (GMT -0500)
York

Weather History for KTHV - February, 2014

Change the Weather History Date:

Sunday, February 23, 2014

  Actual Average Record
Temperature  
Mean Temperature 38 °F -  
Max Temperature 51 °F 0 °F 59 °F (2012)
Min Temperature 26 °F - -5 °F (2011)
Degree Days  
Heating Degree Days 26    
Moisture  
Dew Point 28 °F    
Average Humidity 68    
Maximum Humidity 89    
Minimum Humidity 35    
Precipitation  
Precipitation 0.15 in - - ()
Sea Level Pressure  
Sea Level Pressure 29.98 in    
Wind  
Wind Speed 2 mph (WNW)    
Max Wind Speed 12 mph    
Max Gust Speed -    
Visibility 10 miles    
Events Rain    
Averages and records for this station are not official NWS values.
T = Trace of Precipitation, MM = Missing Value Source: NWS Daily Summary

Daily Weather History Graph

Daily Weather History Graph

Search for Another Location

Airport or City:

Trip Planner

Search our weather history database for the weather conditions in past years. The results will help you decide how hot, cold, wet, or windy it might be!

Date:

Astronomy

Feb. 23, 2014 Rise Set
Actual Time 6:49 AM EST 5:52 PM EST
Civil Twilight 6:22 AM EST 6:20 PM EST
Nautical Twilight 5:50 AM EST 6:51 PM EST
Astronomical Twilight 5:19 AM EST 7:22 PM EST
Moon 1:45 AM EST (2/23) 11:53 AM EST (2/23)
Length of Visible Light 11h 57m
Length of Day
11h 03m
Last Quarter, 39% of the Moon is Illuminated
Feb 23
Last Quarter
Mar 1
New
Mar 8
First Quarter
Mar 16
Full
Mar 23
Last Quarter

Hourly Weather History & Observations

Time (EST) Temp. Windchill Dew Point Humidity Pressure Visibility Wind Dir Wind Speed Gust Speed Precip Events Conditions
12:53 AM 28.9 °F - 23.0 °F 78% 30.01 in 9.0 mi Calm Calm - N/A   Clear
1:53 AM 32.0 °F - 24.1 °F 73% 30.00 in 9.0 mi Calm Calm - N/A   Clear
2:53 AM 32.0 °F 27.5 °F 23.0 °F 69% 29.99 in 10.0 mi SW 4.6 mph - N/A   Clear
3:53 AM 30.9 °F 25.2 °F 21.9 °F 69% 29.99 in 10.0 mi North 5.8 mph - N/A   Clear
4:53 AM 26.1 °F 21.9 °F 19.9 °F 78% 30.02 in 10.0 mi WSW 3.5 mph - N/A   Clear
5:53 AM 27.0 °F 23.0 °F 21.9 °F 81% 30.03 in 10.0 mi West 3.5 mph - N/A   Clear
6:53 AM 28.0 °F 24.2 °F 23.0 °F 81% 30.03 in 10.0 mi WNW 3.5 mph - N/A   Clear
7:53 AM 30.9 °F - 25.0 °F 79% 30.04 in 10.0 mi Calm Calm - N/A   Partly Cloudy
8:53 AM 33.1 °F - 27.0 °F 78% 30.04 in 10.0 mi Calm Calm - N/A   Clear
9:53 AM 39.0 °F - 25.0 °F 57% 30.03 in 10.0 mi Calm Calm - N/A   Clear
10:53 AM 43.0 °F - 26.1 °F 51% 30.02 in 10.0 mi Calm Calm - N/A   Clear
11:53 AM 45.0 °F - 27.0 °F 49% 29.99 in 10.0 mi Calm Calm - N/A   Clear
12:53 PM 46.9 °F - 27.0 °F 46% 29.97 in 10.0 mi NNW 4.6 mph - N/A   Clear
1:53 PM 46.9 °F - 28.0 °F 48% 29.95 in 10.0 mi Calm Calm - N/A   Clear
2:53 PM 48.0 °F - 27.0 °F 44% 29.93 in 10.0 mi Calm Calm - N/A   Clear
3:53 PM 51.1 °F - 24.1 °F 35% 29.92 in 10.0 mi Calm Calm - N/A   Clear
4:53 PM 46.0 °F - 28.9 °F 51% 29.92 in 10.0 mi Calm Calm - N/A   Clear
5:53 PM 39.9 °F - 30.0 °F 68% 29.94 in 10.0 mi Calm Calm - N/A   Overcast
6:53 PM 44.1 °F 38.1 °F 30.9 °F 60% 29.96 in 10.0 mi NW 11.5 mph - 0.00 in Rain Light Rain
7:53 PM 41.0 °F 35.8 °F 35.1 °F 79% 29.96 in 9.0 mi WNW 8.1 mph - 0.03 in Rain Light Rain
8:26 PM 39.9 °F 37.8 °F 36.0 °F 86% 29.94 in 8.0 mi NW 3.5 mph - 0.03 in Rain Light Rain
8:53 PM 39.0 °F 35.7 °F 35.1 °F 86% 29.96 in 8.0 mi North 4.6 mph - 0.05 in Rain Light Rain
9:53 PM 37.9 °F 35.5 °F 35.1 °F 89% 29.96 in 5.0 mi WNW 3.5 mph - 0.05 in Rain Light Rain
10:43 PM 37.9 °F 35.5 °F 33.1 °F 83% 29.92 in 10.0 mi WSW 3.5 mph - 0.02 in Rain Light Rain
10:53 PM 37.9 °F 33.5 °F 33.1 °F 83% 29.94 in 10.0 mi West 5.8 mph - 0.02 in   Overcast
11:53 PM 37.9 °F 34.4 °F 32.0 °F 79% 29.92 in 10.0 mi West 4.6 mph - N/A   Overcast